Skip to main content Skip to accessibility
This website is not compatible with your web browser. You should install a newer browser. If you live in Jersey and need help upgrading call the States of Jersey web team on 440099.
Homegov.je

L'înformâtion et les sèrvices publyis pouor I'Île dé Jèrri

  • Choose the service you want to log in to:

  • gov.je

    Update your notification preferences

  • one.gov.je

    Access government and parish services

  • CAESAR

    Clear goods through customs or claim relief

  • Talentlink

    View or update your States of Jersey job application

Local METARs

METAR EGJJ 240350Z AUTO 10007KT 8000 HZ NCD 06/05 Q1031

METAR EGJB 240350Z 09005KT CAVOK 07/06 Q1032

METAR LFRD 240400Z AUTO VRB02KT 3200 0750 R35L/1300D BCFG NSC 07/06 Q1031 TEMPO 0300 FG VV///

METAR LFRC 240400Z AUTO 13005KT 7000 NSC 07/05 Q1031

 

 

 

​Times are in Greenwich Mean Time (GMT) and not British Summer Time (BST). They will be one hour different during BST.

Back to top
rating button